Weather History for Lawton, OK

Change the Weather History Date:

Tuesday, November 20, 2012

  Actual Average Record
Temperature  
Mean Temperature 60 °F -  
Max Temperature 77 °F 64 °F 83 °F (1949)
Min Temperature 44 °F 37 °F 24 °F (1948)
Degree Days  
Heating Degree Days 4    
Growing Degree Days 10 (Base 50)    
Moisture  
Dew Point 48 °F    
Average Humidity 78    
Maximum Humidity 100    
Minimum Humidity 37    
Precipitation  
Precipitation 0.00 in - - ()
Sea Level Pressure  
Sea Level Pressure 30.18 in    
Wind  
Wind Speed 2 mph (NNE)    
Max Wind Speed 8 mph    
Max Gust Speed -    
Visibility 6 miles    
Events Fog    
Averages and records for this station are not official NWS values.
T = Trace of Precipitation, MM = Missing Value Source: NWS Daily Summary

Daily Weather History Graph

Daily Weather History Graph

Search for Another Location

Airport:

Trip Planner

Search our weather history database for the weather conditions in past years. The results will help you decide how hot, cold, wet, or windy it might be!

Date:

Astronomy

Nov. 20, 2012 Rise Set
Actual Time 7:12 AM CST 5:26 PM CST
Civil Twilight 6:45 AM CST 5:53 PM CST
Nautical Twilight 6:14 AM CST 6:23 PM CST
Astronomical Twilight 5:44 AM CST 6:53 PM CST
Moon 12:56 PM CST (11/20) No Moon Set
Length of Visible Light 11h 07m
Length of Day
10h 13m
First Quarter, 51% of the Moon is Illuminated
Nov 20
First Quarter
Nov 28
Full
Dec 6
Last Quarter
Dec 13
New
Dec 19
First Quarter

Hourly Weather History & Observations

Time (CST) Temp. Windchill Dew Point Humidity Pressure Visibility Wind Dir Wind Speed Gust Speed Precip Events Conditions
12:53 AM 48.9 °F - 46.9 °F 93% 30.13 in 7.0 mi Calm Calm - N/A   Clear
1:53 AM 46.0 °F - 43.0 °F 89% 30.13 in 6.0 mi Calm Calm - N/A   Clear
2:53 AM 48.9 °F - 46.9 °F 93% 30.14 in 6.0 mi North 5.8 mph - N/A   Clear
3:53 AM 48.0 °F - 46.9 °F 96% 30.14 in 5.0 mi Calm Calm - N/A   Clear
4:53 AM 48.0 °F - 46.0 °F 93% 30.14 in 3.0 mi Calm Calm - N/A   Clear
5:17 AM 46.4 °F - 44.6 °F 93% 30.15 in 1.8 mi Calm Calm - N/A   Clear
5:26 AM 44.6 °F - 42.8 °F 93% 30.15 in 0.5 mi Calm Calm - N/A Fog Fog
5:50 AM 46.4 °F - 46.4 °F 100% 30.16 in 2.5 mi Calm Calm - N/A   Clear
5:53 AM 46.0 °F 44.8 °F 45.0 °F 96% 30.16 in 4.0 mi NNE 3.5 mph - N/A   Clear
6:53 AM 48.9 °F - 46.9 °F 93% 30.18 in 4.0 mi NNE 6.9 mph - N/A   Clear
7:53 AM 48.9 °F - 46.9 °F 93% 30.20 in 4.0 mi NNE 5.8 mph - N/A   Clear
8:53 AM 53.1 °F - 50.0 °F 89% 30.23 in 4.0 mi NNE 6.9 mph - N/A   Clear
9:12 AM 55.4 °F - 51.8 °F 88% 30.23 in 1.5 mi NNE 8.1 mph - N/A   Partly Cloudy
9:22 AM 55.4 °F - 51.8 °F 88% 30.24 in 4.0 mi NNE 4.6 mph - N/A   Partly Cloudy
9:53 AM 59.0 °F - 52.0 °F 78% 30.23 in 6.0 mi NNE 4.6 mph - N/A   Haze
10:53 AM 64.9 °F - 55.0 °F 70% 30.24 in 6.0 mi NE 5.8 mph - N/A   Haze
11:53 AM 70.0 °F - 55.0 °F 59% 30.22 in 10.0 mi ENE 4.6 mph - N/A   Clear
1:53 PM 75.0 °F - 53.1 °F 46% 30.15 in 10.0 mi Calm Calm - N/A   Clear
2:53 PM 77.0 °F - 52.0 °F 42% 30.14 in 10.0 mi ENE 3.5 mph - N/A   Clear
3:53 PM 75.9 °F - 48.0 °F 37% 30.14 in 10.0 mi Variable 3.5 mph - N/A   Clear
4:53 PM 75.0 °F - 48.0 °F 38% 30.15 in 10.0 mi Calm Calm - N/A   Clear
5:53 PM 66.9 °F - 48.0 °F 51% 30.17 in 10.0 mi Calm Calm - N/A   Clear
6:53 PM 59.0 °F - 48.0 °F 67% 30.19 in 10.0 mi Calm Calm - N/A   Clear
7:53 PM 53.1 °F - 45.0 °F 74% 30.20 in 10.0 mi Calm Calm - N/A   Clear
8:53 PM 50.0 °F - 43.0 °F 77% 30.22 in 8.0 mi Calm Calm - N/A   Clear
9:53 PM 48.9 °F - 44.1 °F 83% 30.22 in 10.0 mi North 3.5 mph - N/A   Clear
10:53 PM 48.0 °F - 43.0 °F 83% 30.21 in 10.0 mi Calm Calm - N/A   Clear
11:53 PM 45.0 °F - 41.0 °F 86% 30.20 in 10.0 mi Calm Calm - N/A   Clear